This is the latest recevied weather packets stored in our database for station/object KC1BRV. If no packets are shown the sender has not sent any weather packets the latest 10 day(s).
| Time | Temp. | Humidity | Pressure | Rain* | Wind** | Luminosity | Snow |
|---|---|---|---|---|---|---|---|
| 1778101883 | 14.44° C | 93% | 1009 hPa | 1.27 mm | - | 50 W/m² | - |
| 1778101580 | 14.44° C | 92% | 1009.1 hPa | 0 mm | - | 56 W/m² | - |
| 1778101277 | 14.44° C | 92% | 1009 hPa | 0 mm | - | 58 W/m² | - |
| 1778100974 | 14.44° C | 91% | 1009 hPa | 0 mm | - | 138 W/m² | - |
| 1778100668 | 14.44° C | 91% | 1009.2 hPa | 0 mm | - | 88 W/m² | - |
| 1778100367 | 14.44° C | 91% | 1009.1 hPa | 0 mm | - | 95 W/m² | - |
| 1778100064 | 14.44° C | 91% | 1009.2 hPa | 0 mm | - | 101 W/m² | - |
| 1778099762 | 14.44° C | 91% | 1009.3 hPa | 0 mm | - | 95 W/m² | - |
| 1778099458 | 14.44° C | 91% | 1009.1 hPa | 0 mm | - | 99 W/m² | - |
| 1778099156 | 14.44° C | 92% | 1009.3 hPa | 0 mm | - | 98 W/m² | - |
| 1778098852 | 14.44° C | 91% | 1009.1 hPa | 0 mm | - | 92 W/m² | - |
| 1778098550 | 14.44° C | 91% | 1009.2 hPa | 0 mm | - | 80 W/m² | - |
| 1778098246 | 14.44° C | 91% | 1009.3 hPa | 0 mm | - | 57 W/m² | - |
| 1778097942 | 15° C | 91% | 1009.4 hPa | 1.78 mm | - | 66 W/m² | - |
| 1778097639 | 15° C | 90% | 1009.6 hPa | 1.78 mm | - | 62 W/m² | - |
| 1778097336 | 15° C | 90% | 1009.5 hPa | 0 mm | - | 73 W/m² | - |
| 1778097032 | 15° C | 90% | 1009.3 hPa | 0 mm | - | 138 W/m² | - |
| 1778096730 | 15° C | 90% | 1009.6 hPa | 0 mm | - | 146 W/m² | - |
| 1778096426 | 15° C | 91% | 1009.6 hPa | 0 mm | - | 136 W/m² | - |
| 1778096124 | 15° C | 91% | 1009.6 hPa | 0 mm | - | 162 W/m² | - |
| 1778095821 | 15° C | 91% | 1009.7 hPa | 0 mm | - | 188 W/m² | - |
| 1778095517 | 15° C | 90% | 1009.8 hPa | 1.27 mm | - | 109 W/m² | - |
| 1778095213 | 15° C | 89% | 1009.9 hPa | 1.27 mm | - | 59 W/m² | - |
| 1778094910 | 15° C | 88% | 1010 hPa | 0 mm | - | 64 W/m² | - |
| 1778094606 | 15° C | 86% | 1009.7 hPa | 0 mm | - | 51 W/m² | - |
* Rain latest hour (hover to see other rain measurements)
** Current wind speed in m/s (hover to see current wind gust speed)